Kirksville, MO

12:30 PM CDT on March 25, 2017 (GMT -0500)
Kirksville Regional

Weather History for KIRK - March, 2015

Change the Weather History Date:

Sunday, March 8, 2015

  Actual Average Record
Temperature  
Mean Temperature 43 °F 37 °F  
Max Temperature 57 °F 47 °F 76 °F (1974)
Min Temperature 28 °F 28 °F -1 °F (1943)
Degree Days  
Heating Degree Days 22 28  
Month to date heating degree days 268 233  
Since 1 July heating degree days 4947 4766  
Cooling Degree Days 0 0  
Month to date cooling degree days 0 0  
Year to date cooling degree days 0 0  
Moisture  
Dew Point 32 °F    
Average Humidity 70    
Maximum Humidity 89    
Minimum Humidity 50    
Precipitation  
Precipitation 0.00 in 0.08 in 2.33 in (1921)
Month to date precipitation 0.10 0.64  
Year to date precipitation 2.15 3.44  
Sea Level Pressure  
Sea Level Pressure 30.15 in    
Wind  
Wind Speed 9 mph (East)    
Max Wind Speed 16 mph    
Max Gust Speed 20 mph    
Visibility 10 miles    
Events      
T = Trace of Precipitation, MM = Missing Value Source: NWS Daily Summary

Daily Weather History Graph

Daily Weather History Graph

Search for Another Location

Airport or City:

Trip Planner

Search our weather history database for the weather conditions in past years. The results will help you decide how hot, cold, wet, or windy it might be!

Date:

Astronomy

Mar. 08, 2015 Rise Set
Actual Time 7:33 AM CDT 7:09 PM CDT
Civil Twilight 7:06 AM CDT 7:36 PM CDT
Nautical Twilight 6:34 AM CDT 8:07 PM CDT
Astronomical Twilight 6:03 AM CDT 8:39 PM CDT
Moon 10:07 PM CDT (3/8) 8:52 AM CDT (3/8)
Length of Visible Light 12h 30m
Length of Day
11h 36m
Waning Gibbous, 92% of the Moon is Illuminated
Mar 8
Waning Gibbous
Mar 13
Last Quarter
Mar 20
New
Mar 27
First Quarter
Apr 4
Full

Hourly Weather History & Observations

Time (CDT) Temp. Windchill Dew Point Humidity Pressure Visibility Wind Dir Wind Speed Gust Speed Precip Events Conditions
12:55 AM 34.0 °F 27.2 °F 30.0 °F 85% 30.20 in 10.0 mi SE 8.1 mph - N/A   Clear
1:55 AM 32.0 °F 25.6 °F 28.0 °F 85% 30.21 in 10.0 mi SE 6.9 mph - N/A   Clear
3:55 AM 33.1 °F 26.9 °F 27.0 °F 78% 30.18 in 10.0 mi SE 6.9 mph - N/A   Clear
4:55 AM 34.0 °F 27.2 °F 28.9 °F 82% 30.16 in 10.0 mi SE 8.1 mph - N/A   Clear
5:55 AM 34.0 °F 27.2 °F 30.0 °F 85% 30.17 in 10.0 mi SSE 8.1 mph - N/A   Mostly Cloudy
6:55 AM 33.1 °F 27.7 °F 28.0 °F 82% 30.19 in 10.0 mi ENE 5.8 mph - N/A   Clear
7:55 AM 35.1 °F 28.6 °F 28.9 °F 78% 30.19 in 10.0 mi ENE 8.1 mph - N/A   Mostly Cloudy
8:55 AM 37.0 °F 31.0 °F 30.0 °F 76% 30.19 in 10.0 mi East 8.1 mph - N/A   Clear
9:55 AM 42.1 °F 36.1 °F 30.0 °F 62% 30.20 in 10.0 mi East 10.4 mph - N/A   Clear
10:55 AM 44.1 °F 37.7 °F 28.9 °F 55% 30.18 in 10.0 mi ESE 12.7 mph - N/A   Clear
11:55 AM 48.0 °F - 32.0 °F 54% 30.17 in 10.0 mi SE 12.7 mph - N/A   Clear
12:55 PM 51.1 °F - 34.0 °F 52% 30.14 in 10.0 mi ESE 11.5 mph - N/A   Clear
1:55 PM 54.0 °F - 36.0 °F 51% 30.11 in 10.0 mi ESE 9.2 mph - N/A   Clear
2:55 PM 55.0 °F - 37.0 °F 51% 30.09 in 10.0 mi East 5.8 mph - N/A   Clear
3:55 PM 55.4 °F - 37.4 °F 51% 30.05 in 10.0 mi East 8.1 mph - N/A   Clear
4:55 PM 55.9 °F - 37.9 °F 51% 30.09 in 10.0 mi East 4.6 mph - N/A   Clear
5:55 PM 53.1 °F - 37.0 °F 55% 30.09 in 10.0 mi NE 12.7 mph - N/A   Clear
6:55 PM 46.9 °F - 35.1 °F 63% 30.12 in 10.0 mi NNE 12.7 mph - N/A   Clear
7:55 PM 43.0 °F 36.4 °F 36.0 °F 76% 30.13 in 10.0 mi NE 12.7 mph - N/A   Clear
8:55 PM 37.9 °F 32.1 °F 33.1 °F 83% 30.14 in 10.0 mi NE 8.1 mph - N/A   Clear
9:55 PM 37.0 °F 31.6 °F 33.1 °F 86% 30.15 in 10.0 mi ENE 6.9 mph - N/A   Clear
10:55 PM 36.0 °F 31.1 °F 32.0 °F 86% 30.17 in 10.0 mi ENE 5.8 mph - N/A   Clear
11:55 PM 36.0 °F 30.3 °F 32.0 °F 86% 30.17 in 10.0 mi ENE 6.9 mph - N/A   Clear
12:55 AM 33.1 °F 26.9 °F 30.9 °F 92% 30.16 in 8.0 mi NE 6.9 mph - N/A   Clear